STARLINK-4682 (53597 NORAD) Tracking and Keplerian Element Data

This shows tracking and keplerian element data for the satellite.

Feedback or suggestion? Click here.




ElementValue
Catalog53597
NameSTARLINK-4682
Epoch Orbit130
Epoch Day324.91667824
Epoch Year2022
RAAN252.4866
Inclination53.2177
Eccentricity0.0001423
Argument of Perigee67.4643
Mean Anonmoly17.0634
Mean Motion15.08836153
Decay Rate-0.00015831
L11 53597U 22104K 22324.91667824 -.00015831 00000+0 -97886-3 0 9994
L22 53597 53.2177 252.4866 0001423 67.4643 17.0634 15.08836153 1304



Live tracking and technical data element details for STARLINK-4682 (NORAD 53597). STARLINK-4682 can be tracked NOW for your location showing map with azimuth and elevation plus other details from your city location.







IsCatalogInMostPopularTable: catalog: 53597, numindb: 1
Update: records affected: 1



GetName: 53597 STARLINK-4682

Hit Count: updated at: Thu, 08 Dec 2022 20:39:34 GMT